Temperature
16 17 16 16 16 16 16 16 16 16 16 16 16 16 16 15 15 16 16 16 16 17 17 17 17 17 16 16 16 15 15 15 15 15 15 15 15 15 15 15 15 15 15
17 17 16 16 16 16 16 16 16 16 16 16 16 16 16 16 16 16 16 16 16 17 17 17 17 17 16 16 16 16 16 16 15 15 15 15 15 15 15 15 15 15 15
17 17 16 16 16 16 16 16 16 16 16 16 16 16 16 16 16 16 16 16 17 17 17 17 17 17 16 16 16 16 16 16 16 16 15 15 15 15 15 15 15 15 15
17 17 16 16 16 16 16 16 16 16 16 16 16 16 16 16 16 16 17 17 17 17 17 17 17 17 16 16 16 16 16 16 16 16 16 16 16 16 15 15 15 15 15
17 17 16 16 16 16 16 15 16 16 16 16 16 16 17 17 17 17 17 17 17 17 17 17 17 17 17 16 16 16 16 16 16 16 16 16 16 16 16 16 16 15 15
17 16 16 16 16 16 16 16 16 16 16 16 17 17 17 17 17 17 17 18 18 18 18 17 17 17 17 17 17 17 16 16 16 16 16 16 16 16 16 16 16 16 16
17 16 16 15 16 16 16 16 16 16 16 17 17 17 17 17 18 18 18 18 18 18 18 18 17 17 17 17 17 17 17 16 16 16 16 16 16 16 16 16 16 16 16
17 16 15 15 15 16 16 16 16 16 16 17 17 17 17 18 18 18 18 18 18 18 18 18 17 17 17 17 17 17 16 16 16 16 16 16 16 16 15 15 15 15 15
16 16 15 15 15 16 16 16 16 16 16 17 17 17 17 18 18 18 18 18 18 18 18 18 17 17 17 17 16 16 16 16 16 16 16 16 15 15 15 15 15 15 15
16 16 15 15 15 16 16 16 16 16 16 16 17 17 17 17 18 18 18 18 18 18 18 17 17 17 17 17 16 16 16 16 16 16 16 15 15 15 15 15 15 15 15
16 16 15 15 15 15 16 16 16 16 16 16 17 17 17 18 18 18 18 18 18 17 17 17 17 17 17 16 16 16 16 16 16 16 15 15 15 15 15 14 14 14 14
16 16 16 15 15 15 16 16 16 16 16 16 17 17 17 17 18 18 18 17 17 17 17 17 17 17 17 16 16 16 16 15 15 15 15 15 15 14 14 14 14 14 14
16 16 16 16 16 16 16 16 16 16 16 16 17 17 17 17 17 17 17 17 17 17 17 17 17 17 16 16 16 15 15 15 15 15 15 14 14 14 14 14 13 13 13
16 16 16 16 16 16 16 16 16 17 16 16 16 17 17 17 17 17 17 17 17 17 17 17 16 16 16 16 15 15 15 15 15 15 14 14 14 13 13 13 13 13 13
16 16 16 16 16 16 16 16 16 16 16 16 16 16 17 17 17 17 17 17 17 17 16 16 16 16 15 15 15 15 15 14 14 14 14 14 14 13 13 13 12 12 12
17 16 16 16 16 16 16 16 16 16 16 16 16 16 16 16 16 16 16 16 16 16 16 16 15 15 15 15 14 14 14 14 14 14 14 13 13 13 13 12 12 12 12
17 17 16 16 16 16 16 16 16 16 16 16 15 15 15 15 15 15 16 16 16 15 15 15 15 15 14 14 14 14 14 14 13 13 13 13 13 13 13 12 12 12 12
16 16 16 16 16 16 16 15 15 15 15 15 15 15 15 15 15 15 15 15 15 15 15 14 14 14 14 14 14 14 13 13 13 13 13 13 13 13 13 12 12 12 12
16 16 16 16 16 16 16 15 15 15 15 15 15 15 15 14 14 14 14 14 14 14 14 14 14 14 14 13 13 13 13 13 13 13 13 13 13 13 12 12 12 11 11
16 16 16 16 16 16 15 15 15 15 15 14 14 14 14 14 14 14 14 14 14 14 14 14 13 13 13 13 13 13 13 13 13 13 13 13 13 12 12 12 11 11 11
16 16 16 16 16 15 15 15 15 15 15 14 14 14 14 14 14 14 14 14 14 14 14 13 13 13 13 13 13 13 13 13 13 13 13 13 13 12 12 12 11 11 11
16 16 16 16 16 16 16 15 15 15 15 15 14 14 14 14 14 14 14 14 14 14 14 13 13 13 13 13 12 12 12 12 12 12 13 12 12 12 11 11 11 11 10
17 16 16 16 16 16 15 15 15 15 14 14 14 14 14 14 14 14 14 14 14 14 14 13 13 13 13 13 12 11 11 11 11 11 11 11 11 11 11 11 10 10 10
17 17 17 16 16 16 16 15 15 15 15 15 15 15 14 14 14 14 14 14 14 14 14 14 13 13 13 13 12 12 11 10 10 10 10 10 10 10 10 10 10 10 9
17 17 16 16 16 16 16 15 15 15 15 15 15 15 14 14 14 14 14 14 14 14 13 13 13 13 12 12 12 11 11 10 10 9 9 10 10 10 9 9 9 9 9
16 16 16 16 16 16 15 15 15 15 15 15 15 14 14 14 14 14 14 14 14 13 13 13 13 12 12 12 11 11 10 9 9 9 8 9 9 9 9 9 9 8 8
Wind_Speed
11 17 22 21 20 19 18 17 17 16 17 17 17 18 19 20 21 22 22 21 21 21 20 20 20 20 19 19 19 18 18 19 19 18 18 17 17 17 16 15 15 14 16
13 21 24 22 21 19 18 18 17 17 17 18 18 18 19 20 21 21 22 21 21 20 20 19 19 18 18 18 17 15 14 14 15 16 16 16 16 16 16 16 15 14 15
17 21 23 22 21 20 19 18 18 17 18 18 18 19 19 20 21 21 21 21 20 19 19 18 17 17 16 15 15 14 13 12 12 13 14 14 14 15 15 15 15 15 14
19 20 21 23 21 20 19 18 18 18 19 19 19 19 20 20 21 21 20 20 19 18 17 16 16 15 14 13 13 14 14 14 14 13 13 12 12 13 14 14 14 14 14
16 19 22 23 22 20 19 18 18 18 19 19 19 19 19 20 20 20 19 18 18 17 16 15 14 13 12 12 13 14 14 15 15 14 13 12 11 12 13 12 13 13 13
12 18 22 23 21 20 19 19 18 19 20 19 19 19 19 19 19 18 18 17 16 16 15 14 13 12 11 11 12 13 13 14 14 13 11 10 10 11 12 12 11 11 11
12 17 21 22 21 20 19 19 19 19 20 19 19 18 18 18 18 17 16 16 15 14 14 12 11 10 9 9 10 12 12 11 11 11 9 9 9 10 10 11 10 10 10
14 16 20 22 20 19 19 18 18 19 19 19 19 18 18 17 17 16 15 14 13 13 12 11 10 9 7 7 8 9 10 8 7 7 7 7 8 8 9 9 9 9 9
14 13 15 18 19 19 18 18 18 19 19 19 19 18 17 17 16 15 14 13 12 11 11 9 8 6 5 4 5 6 6 6 6 5 5 6 6 6 6 6 7 7 7
12 11 12 14 16 16 16 18 18 18 19 19 19 19 18 16 15 14 13 11 11 10 9 8 6 5 3 1 2 4 5 3 3 3 5 6 6 5 4 4 4 4 5
14 12 11 11 13 15 15 16 17 18 18 19 19 19 17 15 14 13 12 11 10 8 7 6 5 3 2 2 3 4 4 2 1 2 6 7 6 5 4 3 2 2 2
15 13 11 11 12 14 13 14 14 14 16 16 16 16 15 14 13 12 12 11 10 8 7 6 5 4 4 4 6 6 5 4 4 5 7 9 8 6 5 4 3 2 2
15 13 12 12 13 12 10 12 11 12 13 14 15 15 14 12 11 11 11 10 9 8 7 6 6 6 6 7 7 8 8 7 7 7 8 10 10 8 7 6 6 5 4
15 13 13 12 12 12 12 11 11 10 10 11 13 15 12 9 9 10 9 10 9 9 8 7 7 8 8 9 10 9 9 8 9 9 10 12 13 11 10 9 9 8 8
16 15 14 14 13 11 10 9 10 10 11 12 13 14 14 10 8 9 9 10 10 10 9 8 8 8 8 8 9 9 9 9 9 10 10 13 15 15 13 11 11 10 10
16 16 14 15 13 11 9 7 8 11 12 12 12 14 15 13 10 8 7 8 9 11 11 10 9 6 6 6 5 7 8 8 9 10 11 12 14 17 16 14 13 12 11
15 15 16 16 14 13 11 9 9 11 12 11 12 14 15 14 12 9 6 5 8 11 10 8 6 5 3 3 3 5 6 7 8 9 11 11 12 14 16 15 14 13 12
12 13 14 14 14 13 10 8 8 10 10 10 12 13 14 14 13 10 5 5 8 7 6 3 3 2 3 3 3 4 4 6 8 10 10 11 12 12 13 15 15 13 10
11 12 13 12 13 12 10 8 8 9 9 10 11 11 12 12 12 9 6 6 6 4 3 2 3 3 3 4 4 5 4 5 6 9 9 11 11 11 11 11 11 10 8
10 11 11 11 11 10 8 6 5 5 5 8 9 10 11 11 12 10 6 6 5 3 2 2 3 3 3 3 4 5 5 6 5 6 7 8 8 8 8 7 6 5 5
8 9 11 11 10 9 7 7 6 6 5 4 6 9 10 10 10 8 4 4 3 3 3 3 3 3 3 2 2 4 5 5 6 5 4 4 4 4 4 5 5 5 3
10 10 10 11 10 10 8 6 4 4 4 4 4 7 9 9 9 8 5 3 3 3 3 2 2 2 2 1 2 2 4 5 4 3 3 2 1 1 2 4 5 5 4
10 11 11 11 11 10 8 5 4 3 2 3 4 4 5 8 8 7 6 4 2 3 3 2 2 3 3 2 2 3 3 4 3 3 3 3 2 2 2 2 3 4 4
10 9 10 10 10 10 9 8 8 7 6 6 5 4 4 6 7 7 6 5 3 2 1 1 1 2 3 3 2 3 4 4 3 3 2 3 4 3 3 2 3 4 4
8 7 8 8 8 8 9 11 10 7 6 4 4 6 4 4 5 6 6 5 3 2 1 1 1 1 2 3 3 2 3 3 5 5 4 2 2 2 3 3 4 5 5
6 6 6 7 7 6 8 9 10 9 8 8 7 6 5 3 3 4 5 5 4 2 2 1 1 1 2 3 3 3 3 3 3 4 5 3 2 0 3 3 4 4 5
Wind_Direction
153 155 149 145 139 134 129 125 121 117 112 106 102 101 102 104 106 105 105 103 101 99 97 95 95 94 94 93 90 87 83 79 74 72 69 69 71 72 71 68 64 63 65
146 152 148 145 140 135 131 128 125 121 115 109 107 107 107 107 107 106 105 103 102 100 99 98 97 97 96 94 91 87 85 83 78 73 67 65 68 70 69 65 64 65 64
144 149 147 144 140 136 133 131 128 123 117 114 111 110 110 110 108 107 105 104 103 102 100 99 99 98 96 92 87 81 81 86 89 78 68 61 63 66 66 64 61 63 63
144 146 146 143 140 137 136 135 132 127 121 118 116 114 113 111 109 108 107 106 104 103 102 101 101 99 95 89 80 76 80 92 95 85 72 65 64 66 63 62 61 60 59
141 145 146 143 141 139 139 139 135 129 125 122 120 118 116 114 112 111 109 108 107 106 104 103 101 98 92 84 75 73 83 98 99 91 81 71 67 69 65 63 60 59 57
135 142 146 142 142 141 142 141 137 132 129 126 124 121 120 118 116 114 113 112 111 109 107 105 102 97 90 80 72 72 86 104 105 96 87 77 72 72 69 66 63 60 58
137 142 145 143 143 143 144 143 140 137 133 131 129 126 124 123 122 120 118 116 115 113 112 109 105 100 91 80 72 71 80 100 107 105 97 86 81 77 71 66 64 61 60
142 144 147 145 144 144 145 145 144 141 138 135 133 131 130 129 128 127 124 122 119 118 117 115 111 104 93 81 70 65 70 90 107 114 110 101 93 84 77 70 65 62 60
144 142 143 144 143 144 146 146 146 144 142 140 138 136 135 135 135 134 132 130 127 125 124 123 121 115 102 81 62 53 53 78 111 136 138 130 116 99 89 79 69 64 61
145 143 141 142 141 141 143 145 145 145 145 144 143 142 142 142 142 141 141 140 139 138 138 138 139 138 130 79 25 21 26 56 93 157 172 166 151 131 116 100 83 72 66
151 149 145 142 141 140 141 145 145 147 148 146 148 148 147 148 148 149 152 152 153 155 158 161 168 178 202 273 305 327 346 357 281 221 202 194 182 174 166 152 131 104 85
160 159 154 150 148 147 147 146 147 150 152 153 156 155 156 159 161 164 167 168 171 175 181 191 204 222 242 268 283 291 290 289 267 244 225 215 207 206 205 202 199 197 183
161 164 162 158 157 156 150 154 156 157 160 163 167 167 167 170 174 176 177 183 187 193 204 219 232 242 250 259 268 271 270 270 258 248 236 222 218 222 224 225 225 227 227
163 171 167 164 163 163 159 164 166 166 171 176 182 180 176 176 180 183 188 195 199 205 215 229 240 250 256 258 258 258 261 259 257 253 247 234 228 231 234 236 236 235 235
166 173 172 170 167 167 165 170 172 175 181 187 189 189 185 179 183 188 198 202 209 214 219 227 238 249 256 259 254 247 250 254 258 256 257 248 240 238 240 241 242 242 242
167 172 173 173 171 170 170 172 176 181 183 189 193 195 191 186 185 188 196 203 213 218 223 225 229 235 246 248 251 249 252 261 265 264 261 258 252 248 247 248 249 250 250
171 172 174 175 173 174 174 175 177 181 181 184 189 191 190 188 185 183 185 195 210 215 216 218 228 233 243 248 257 263 266 270 271 269 266 260 256 254 251 251 252 253 255
170 172 176 177 175 176 173 172 174 177 178 182 185 186 187 188 186 181 182 196 206 205 202 202 211 226 247 257 267 275 274 276 273 270 267 261 256 254 254 252 252 253 256
173 174 175 174 175 176 173 171 174 176 178 183 185 186 190 190 188 182 187 199 201 196 202 205 210 212 241 263 270 273 272 268 268 271 266 262 257 254 252 252 246 244 248
177 175 176 175 175 172 167 163 167 172 175 179 182 186 188 191 190 186 188 197 194 186 206 212 222 227 233 252 273 277 272 269 267 266 266 267 262 255 242 227 218 221 232
181 179 180 178 178 172 171 175 178 184 180 176 182 186 184 184 184 180 180 186 184 193 214 219 220 238 250 241 276 296 292 278 276 276 273 266 261 245 206 186 178 173 174
188 187 184 183 182 183 185 181 176 171 175 180 176 179 182 179 179 180 175 177 178 193 210 216 210 227 249 206 209 286 311 322 317 313 322 311 304 94 121 141 145 146 142
196 191 192 190 186 186 178 159 141 127 126 160 177 177 176 169 168 163 162 163 165 179 197 209 202 206 239 252 205 213 243 267 305 315 352 15 31 51 61 93 114 127 129
203 195 192 191 187 185 176 174 173 180 191 197 182 170 152 145 142 143 141 139 131 140 167 197 178 191 206 241 254 233 227 220 250 296 322 6 27 28 22 48 71 83 100
197 189 188 186 187 185 183 185 185 188 192 171 150 151 150 133 127 129 129 124 121 127 139 151 177 201 212 225 229 241 253 245 230 237 270 289 353 16 21 28 63 68 69
182 180 178 177 184 183 183 185 187 185 175 164 162 164 157 140 124 125 126 123 123 131 145 170 206 227 236 240 235 226 228 237 233 228 246 248 244 334 41 36 50 61 64
Height
1528 1532 1535 1537 1539 1541 1541 1542 1543 1543 1544 1545 1545 1546 1547 1548 1549 1551 1552 1553 1554 1555 1555 1556 1556 1557 1557 1557 1557 1557 1557 1557 1556 1556 1556 1555 1555 1554 1553 1552 1552 1551 1550
1525 1531 1535 1537 1539 1541 1542 1543 1543 1544 1545 1546 1546 1547 1548 1550 1551 1552 1553 1554 1556 1557 1557 1558 1558 1559 1559 1559 1559 1559 1559 1559 1559 1559 1558 1558 1557 1556 1556 1555 1554 1553 1552
1526 1530 1534 1537 1539 1541 1542 1543 1544 1545 1546 1547 1547 1548 1550 1551 1553 1554 1555 1556 1557 1558 1559 1560 1560 1561 1561 1562 1562 1562 1562 1561 1561 1561 1561 1560 1559 1559 1558 1557 1556 1555 1554
1527 1530 1534 1537 1540 1541 1543 1544 1545 1546 1548 1548 1549 1550 1551 1553 1554 1555 1557 1558 1559 1560 1561 1562 1563 1563 1564 1564 1564 1564 1564 1564 1563 1563 1563 1562 1561 1560 1560 1559 1558 1557 1556
1528 1531 1535 1538 1540 1542 1543 1545 1546 1547 1549 1550 1551 1552 1553 1554 1556 1557 1559 1560 1561 1562 1563 1564 1565 1565 1566 1566 1566 1566 1566 1566 1566 1565 1565 1564 1563 1562 1561 1560 1559 1558 1557
1528 1532 1535 1538 1540 1542 1544 1545 1547 1549 1550 1551 1552 1554 1555 1556 1558 1559 1561 1562 1563 1564 1565 1566 1567 1567 1568 1568 1568 1568 1568 1568 1568 1567 1567 1566 1565 1564 1563 1562 1561 1560 1558
1529 1533 1536 1538 1540 1542 1544 1546 1548 1550 1551 1553 1554 1555 1557 1558 1560 1561 1563 1564 1565 1566 1567 1568 1569 1569 1570 1570 1570 1570 1569 1569 1569 1569 1568 1567 1566 1566 1564 1563 1562 1561 1560
1530 1534 1537 1539 1541 1543 1545 1547 1549 1551 1552 1554 1555 1557 1559 1560 1562 1563 1565 1566 1567 1568 1569 1570 1570 1571 1571 1571 1571 1571 1571 1571 1570 1570 1569 1568 1568 1567 1566 1565 1563 1562 1561
1532 1535 1537 1539 1541 1543 1545 1547 1549 1551 1553 1555 1557 1558 1560 1562 1563 1565 1566 1567 1568 1569 1570 1571 1571 1572 1572 1572 1572 1572 1572 1571 1571 1570 1570 1569 1568 1568 1567 1565 1564 1563 1562
1533 1535 1538 1540 1542 1544 1546 1548 1550 1552 1554 1556 1558 1559 1561 1563 1564 1566 1567 1568 1569 1570 1571 1572 1572 1572 1573 1573 1573 1572 1572 1572 1571 1571 1570 1570 1569 1568 1567 1566 1565 1563 1562
1533 1535 1538 1540 1542 1544 1546 1548 1550 1552 1554 1556 1558 1560 1562 1563 1565 1566 1568 1569 1570 1571 1571 1572 1572 1573 1573 1573 1573 1573 1572 1572 1571 1571 1570 1569 1569 1568 1567 1566 1564 1563 1562
1530 1534 1537 1539 1542 1544 1545 1548 1550 1552 1554 1556 1558 1560 1562 1563 1565 1566 1568 1569 1570 1570 1571 1572 1572 1572 1573 1573 1573 1572 1572 1571 1571 1570 1570 1569 1568 1567 1566 1565 1564 1563 1562
1529 1533 1535 1538 1541 1543 1545 1547 1550 1552 1554 1556 1558 1560 1561 1563 1564 1566 1567 1568 1569 1570 1570 1571 1571 1572 1572 1572 1572 1571 1571 1571 1570 1569 1569 1568 1567 1566 1565 1564 1563 1562 1561
1526 1531 1534 1537 1540 1542 1545 1547 1549 1551 1553 1555 1557 1559 1560 1562 1564 1565 1566 1567 1568 1569 1569 1570 1570 1570 1571 1571 1570 1570 1570 1569 1569 1568 1567 1567 1566 1565 1564 1563 1562 1561 1560
1524 1529 1533 1535 1538 1541 1543 1546 1548 1550 1552 1554 1556 1558 1559 1561 1562 1563 1565 1566 1567 1567 1568 1568 1569 1569 1569 1569 1568 1568 1568 1567 1567 1566 1566 1565 1564 1563 1563 1562 1560 1559 1558
1521 1526 1530 1533 1536 1539 1542 1544 1547 1549 1551 1553 1555 1556 1558 1559 1561 1562 1563 1564 1565 1566 1566 1567 1567 1567 1567 1567 1566 1566 1566 1565 1565 1564 1563 1562 1561 1561 1560 1559 1558 1557 1556
1518 1523 1527 1530 1534 1537 1540 1542 1545 1547 1549 1551 1553 1555 1556 1558 1559 1560 1561 1562 1563 1563 1564 1564 1565 1565 1565 1564 1564 1564 1564 1563 1562 1561 1560 1559 1558 1558 1557 1556 1556 1555 1554
1516 1520 1524 1528 1531 1534 1537 1540 1543 1545 1547 1549 1551 1553 1554 1556 1557 1558 1559 1560 1561 1561 1562 1562 1562 1563 1562 1562 1562 1561 1561 1560 1559 1558 1557 1556 1555 1554 1553 1553 1552 1552 1551
1514 1518 1521 1524 1528 1531 1534 1537 1540 1542 1545 1547 1549 1551 1552 1554 1555 1556 1557 1558 1559 1559 1560 1560 1560 1560 1560 1559 1559 1558 1557 1556 1555 1554 1553 1552 1551 1550 1549 1548 1548 1548 1547
1513 1516 1519 1522 1525 1528 1531 1534 1537 1539 1542 1544 1546 1548 1550 1551 1552 1554 1555 1556 1556 1557 1557 1557 1557 1557 1557 1556 1555 1554 1553 1552 1551 1549 1548 1547 1546 1545 1545 1544 1544 1544 1544
1511 1513 1516 1519 1522 1525 1527 1530 1532 1535 1537 1540 1543 1545 1547 1548 1550 1551 1552 1553 1553 1554 1554 1554 1554 1554 1553 1553 1551 1549 1548 1547 1546 1545 1544 1543 1542 1542 1541 1541 1541 1541 1540
1508 1510 1513 1516 1519 1522 1524 1526 1529 1532 1535 1537 1540 1542 1543 1545 1546 1548 1549 1550 1550 1550 1551 1551 1550 1550 1549 1549 1548 1546 1543 1542 1541 1541 1540 1540 1539 1538 1538 1538 1537 1537 1537
1505 1508 1510 1513 1515 1518 1521 1523 1526 1529 1531 1533 1535 1537 1539 1541 1543 1544 1545 1546 1546 1547 1547 1547 1546 1546 1545 1545 1544 1544 1542 1539 1538 1537 1536 1536 1535 1535 1535 1534 1534 1533 1533
1502 1505 1507 1510 1512 1515 1518 1520 1522 1524 1526 1528 1531 1533 1536 1537 1539 1540 1541 1542 1542 1543 1542 1542 1541 1541 1540 1539 1539 1538 1538 1537 1536 1533 1533 1532 1532 1531 1531 1530 1530 1529 1529
1499 1502 1504 1507 1509 1511 1514 1517 1519 1521 1524 1526 1528 1530 1532 1533 1535 1536 1537 1538 1538 1538 1538 1537 1537 1536 1535 1534 1534 1533 1532 1532 1531 1531 1528 1528 1528 1527 1527 1526 1526 1525 1525
1496 1499 1501 1504 1506 1508 1510 1512 1514 1517 1519 1522 1524 1526 1528 1529 1531 1532 1533 1533 1533 1533 1533 1532 1532 1531 1530 1529 1528 1527 1527 1527 1526 1525 1524 1524 1523 1523 1522 1521 1521 1521 1521